[Date Prev][Date Next][Thread Prev][Thread Next] - [Date Index][Thread Index][Author Index]

2 Line ISS Keps 2-28



ISS
1 25544U 98067A   04059.35965644  .00021930  00000-0  20157-3 0  2772
2 25544  51.6293 164.9701 0006026 218.3085 264.3736 15.67604230301084


----
Via the sarex mailing list at AMSAT.ORG courtesy of AMSAT-NA.
To unsubscribe, send "unsubscribe sarex" to Majordomo@amsat.org



AMSAT Top AMSAT Home